Find Starlink 31947

NORAD ID: 59835 Int'l Des: 2024-097 Owner: SPXS Country: US Constellation: starlink operational
LEOCIRCULAR

Current View

Loading 3D Globe...

About Starlink 31947

Starlink 31947 (NORAD 59835) is a starlink constellation satellite (v2 mini) launched May 23, 2024 by SPXS of US. It operates in LEO, CIRCULAR orbit with a mass of 730.00 kg.

About Starlink 31947

Description loading...

Upcoming Passes

Passes for default location (London). Set your location on the main map for personalized predictions.

Altitude History

Loading altitude history...

Two-Line Element Set

1 59835U 24097A 26170.39358662 .00001482 00000-0 63342-4 0 9997
2 59835 43.0019 59.7778 0000951 279.0294 81.0450 15.27583675117477
Epoch: Jun 19, 2026 • Age: 14 hours

Current Status

Altitude 485.1 km
Velocity 7.63 km/s
Sub-Earth Point 35.79°N, 158.96°W
Launch Date May 23, 2024
Age 2 years
Type internet

Technical Details

Classification Payload
Mass 730.00 kg
Dry Mass 700.00 kg
Total Mass 730.00 kg
Length 0.30 m
Diameter 4.10 m
Span 29.00 m
Shape Box + pan
Manufacturer SPXS
Bus Type Starlink V2M
Phase Status In Orbit
Owner/State SPXS/US

Most Searched